GFSFLT2_850_dewp_000.txt.gz
Dewpoint
-7 -8 -9 -9 -8 -8 -7 -7 -6 -7 -5 -1 -2 -10 -13 -13 -8 -2 1 5 5 6 5 5 6 5 6
-8 -8 -8 -8 -7 -7 -8 -8 -8 -7 -7 -6 -4 -7 -6 -10 -2 -3 -1 3 4 5 4 5 6 7 8
-7 -7 -7 -7 -7 -8 -7 -8 -8 -7 -6 -6 -4 -2 -3 -0 -2 -1 -0 1 3 4 3 4 4 7 7
-7 -7 -7 -9 -8 -8 -8 -7 -6 -6 -6 -3 -3 -2 -3 -3 -2 -3 -0 2 2 2 3 4 5 5 6
-7 -8 -9 -9 -8 -8 -8 -8 -8 -7 -4 -4 -4 -3 -5 -9 -11 -10 -4 -1 2 3 4 3 2 2 3
-7 -8 -9 -9 -9 -9 -7 -6 -6 -7 -5 -5 -8 -6 -5 -5 -4 -2 -2 -1 -1 -0 0 2 1 -1 1
-8 -10 -9 -9 -9 -7 -7 -6 -6 -6 -6 -7 -6 -5 -6 -6 -3 -6 -1 -1 0 1 1 -1 -2 -1 -0
-10 -9 -8 -8 -8 -8 -8 -8 -7 -7 -5 -5 -6 -6 -7 -5 -3 -2 -2 -0 -0 -2 -1 -0 1 2 2
-9 -9 -10 -9 -8 -8 -8 -7 -7 -6 -7 -6 -7 -6 -5 -7 -7 -5 -2 -2 -1 -0 0 1 1 1 2
-10 -11 -9 -9 -8 -9 -9 -8 -8 -7 -8 -6 -8 -7 -6 -5 -3 -4 -3 -1 1 2 2 2 2 4 4
-11 -11 -11 -10 -10 -10 -10 -9 -9 -8 -9 -7 -8 -8 -7 -7 -8 -7 -5 -1 1 3 3 3 3 4 4
-11 -11 -10 -11 -11 -11 -10 -10 -9 -9 -9 -8 -8 -8 -8 -8 -8 -8 -5 -2 -0 1 1 1 2 2 2
-11 -11 -11 -11 -11 -11 -10 -10 -9 -9 -8 -8 -9 -9 -9 -9 -8 -7 -6 -3 -2 -0 -1 -1 -1 -0 -0
-11 -12 -12 -11 -10 -10 -10 -9 -8 -9 -8 -9 -9 -10 -9 -9 -8 -6 -6 -4 -3 -2 -1 -2 -1 -0 -0
-12 -12 -12 -11 -11 -10 -9 -9 -9 -9 -9 -9 -9 -10 -9 -8 -7 -7 -6 -4 -3 -3 -2 -3 -3 -2 -2
-12 -12 -11 -11 -10 -10 -9 -9 -9 -10 -10 -10 -9 -9 -9 -9 -8 -7 -6 -5 -4 -3 -3 -4 -4 -3 -3
-12 -12 -11 -11 -10 -9 -9 -9 -9 -10 -11 -10 -12 -9 -8 -9 -9 -7 -6 -5 -4 -4 -4 -5 -5 -5 -5

GFSFLT2_850_dewp_003.txt.gz
Dewpoint
-9 -8 -8 -8 -8 -8 -7 -7 -7 -8 -8 -7 -7 -5 -6 -5 -6 -8 -5 0 2 2 2 4 5 4 3
-8 -8 -8 -8 -7 -7 -9 -9 -8 -8 -8 -8 -7 -5 -4 -6 -4 -2 -5 -3 0 1 -1 2 5 5 5
-8 -8 -7 -7 -7 -8 -9 -9 -8 -8 -8 -8 -7 -5 -5 -3 -3 -3 -1 -0 -2 -3 -2 -1 4 5 4
-7 -7 -7 -8 -7 -8 -9 -10 -10 -9 -9 -7 -6 -6 -4 -3 -4 -8 -5 -11 -10 -8 1 2 2 4 4
-6 -7 -7 -8 -9 -10 -10 -9 -8 -7 -7 -8 -7 -8 -7 -6 -6 -6 -5 -4 -6 -3 -0 0 2 3 4
-6 -7 -8 -9 -11 -9 -8 -7 -8 -8 -8 -9 -7 -6 -7 -6 -5 -3 -4 -2 -2 -2 -1 -1 -0 0 3
-8 -9 -11 -9 -10 -8 -8 -9 -9 -9 -7 -7 -6 -6 -5 -7 -6 -5 -4 -4 -3 -2 -1 -2 -0 1 1
-9 -10 -9 -9 -8 -9 -9 -9 -8 -8 -8 -6 -8 -6 -8 -7 -10 -7 -6 -5 -3 -2 -1 -0 1 1 0
-10 -10 -10 -10 -10 -9 -9 -8 -8 -8 -9 -8 -8 -7 -9 -7 -10 -8 -4 -4 -4 -4 -4 -3 -2 -1 -2
-11 -12 -12 -11 -10 -10 -10 -9 -9 -9 -10 -9 -9 -8 -7 -9 -6 -8 -9 -7 -5 -3 -0 -1 -2 -1 -1
-12 -12 -11 -10 -11 -11 -11 -10 -10 -9 -11 -9 -9 -8 -8 -8 -8 -9 -8 -7 -5 -2 -0 2 2 3 2
-11 -11 -10 -10 -11 -11 -11 -11 -10 -9 -9 -9 -9 -8 -8 -8 -8 -9 -8 -6 -4 -2 0 2 2 3 4
-11 -11 -11 -12 -11 -11 -11 -11 -10 -10 -9 -8 -8 -8 -9 -9 -9 -9 -8 -6 -4 -2 -0 1 1 1 2
-11 -12 -12 -11 -11 -10 -10 -9 -9 -9 -9 -9 -9 -10 -10 -9 -9 -9 -7 -6 -4 -2 -2 -2 -1 -0 -0
-12 -12 -12 -11 -11 -10 -10 -9 -9 -9 -10 -10 -10 -10 -9 -8 -8 -7 -6 -6 -4 -3 -2 -2 -1 -1 -2
-12 -12 -12 -11 -11 -10 -9 -9 -9 -10 -10 -10 -10 -9 -9 -9 -8 -7 -6 -5 -5 -3 -3 -3 -3 -3 -2
-12 -12 -12 -11 -10 -10 -10 -9 -9 -10 -10 -10 -10 -9 -8 -9 -8 -8 -7 -5 -4 -4 -4 -4 -4 -3 -3

GFSFLT2_850_dewp_006.txt.gz
Dewpoint
-10 -11 -9 -9 -10 -9 -7 -7 -7 -8 -8 -8 -8 -8 -7 -7 -7 -6 -3 -3 -2 -1 -1 0 2 4 4
-8 -9 -9 -9 -8 -9 -8 -7 -8 -9 -10 -9 -10 -9 -8 -7 -7 -7 -5 -3 -2 -1 -0 1 1 1 3
-8 -8 -7 -8 -8 -8 -7 -8 -10 -11 -11 -9 -8 -8 -7 -6 -6 -6 -4 -3 -3 -3 -2 -1 -2 0 2
-7 -7 -8 -9 -7 -8 -9 -11 -11 -10 -11 -8 -8 -9 -7 -7 -7 -7 -6 -6 -5 -3 -2 -3 -1 -2 1
-7 -7 -8 -8 -9 -10 -10 -10 -11 -10 -8 -12 -10 -10 -11 -9 -6 -6 -5 -4 -4 -3 -3 -2 -2 -2 -1
-8 -9 -11 -11 -9 -9 -9 -9 -8 -9 -10 -9 -9 -9 -8 -8 -6 -5 -5 -5 -5 -5 -4 -2 -2 -6 -2
-11 -11 -9 -9 -9 -9 -9 -9 -9 -9 -9 -9 -9 -8 -9 -12 -8 -6 -6 -6 -6 -5 -4 -4 -3 -1 -3
-11 -9 -9 -9 -9 -10 -10 -10 -10 -9 -9 -9 -9 -10 -11 -10 -9 -8 -7 -6 -5 -6 -5 -4 -3 -2 -1
-9 -9 -11 -11 -10 -10 -10 -10 -10 -10 -10 -10 -10 -9 -10 -9 -10 -8 -7 -7 -7 -7 -6 -5 -5 -4 -3
-11 -14 -14 -13 -10 -11 -10 -10 -10 -10 -11 -10 -10 -9 -9 -10 -8 -9 -9 -9 -8 -7 -6 -4 -4 -4 -5
-14 -13 -11 -11 -11 -11 -11 -11 -11 -10 -12 -10 -10 -10 -9 -9 -9 -8 -9 -9 -7 -5 -3 -1 0 1 -2
-11 -11 -11 -11 -12 -12 -11 -11 -10 -10 -9 -9 -9 -9 -9 -8 -9 -11 -10 -7 -6 -5 -3 -0 1 2 1
-11 -12 -12 -12 -12 -11 -11 -10 -10 -9 -9 -9 -9 -9 -9 -10 -9 -10 -8 -7 -5 -4 -2 -0 0 2 3
-12 -12 -12 -12 -11 -11 -10 -10 -9 -9 -10 -10 -10 -10 -10 -10 -8 -8 -7 -7 -5 -3 -3 -2 -1 0 2
-12 -12 -12 -12 -11 -11 -10 -10 -9 -9 -10 -10 -10 -9 -10 -9 -8 -7 -7 -6 -5 -3 -3 -2 -2 -2 -1
-12 -12 -12 -11 -11 -10 -10 -10 -11 -10 -10 -10 -10 -9 -9 -9 -8 -7 -6 -5 -4 -3 -3 -2 -2 -2 -2
-12 -12 -11 -11 -11 -11 -10 -10 -10 -10 -9 -10 -10 -9 -9 -9 -8 -7 -6 -5 -4 -3 -4 -3 -3 -3 -2

GFSFLT2_850_dewp_012.txt.gz
Dewpoint
-10 -10 -9 -10 -10 -9 -7 -7 -9 -9 -9 -9 -9 -8 -8 -8 -8 -9 -8 -7 -6 -5 -5 -5 -5 -5 -4
-9 -9 -9 -11 -8 -7 -9 -11 -11 -11 -11 -10 -9 -10 -10 -9 -9 -8 -8 -6 -6 -6 -6 -5 -4 -3 -3
-9 -10 -10 -8 -7 -10 -11 -12 -15 -13 -11 -10 -10 -10 -9 -8 -7 -7 -8 -9 -8 -6 -7 -6 -6 -5 -5
-8 -8 -7 -8 -10 -11 -12 -12 -12 -10 -9 -10 -10 -9 -9 -9 -9 -9 -9 -8 -8 -7 -7 -7 -6 -5 -5
-8 -8 -8 -11 -11 -11 -11 -11 -9 -11 -12 -12 -11 -10 -11 -11 -11 -10 -9 -8 -7 -7 -6 -6 -5 -5 -4
-7 -9 -10 -10 -10 -10 -9 -10 -11 -11 -11 -10 -10 -11 -11 -12 -10 -9 -9 -8 -7 -8 -7 -6 -6 -5 -4
-11 -10 -10 -10 -9 -10 -10 -10 -10 -11 -11 -11 -13 -10 -12 -12 -11 -9 -9 -8 -8 -8 -7 -7 -6 -6 -5
-11 -10 -10 -10 -11 -10 -11 -10 -11 -12 -11 -11 -13 -12 -12 -12 -12 -12 -10 -8 -8 -7 -7 -7 -7 -6 -5
-10 -11 -11 -11 -11 -11 -11 -11 -11 -12 -14 -11 -12 -12 -11 -12 -13 -12 -11 -8 -8 -8 -7 -7 -7 -7 -6
-13 -15 -15 -13 -11 -11 -12 -12 -12 -11 -13 -11 -11 -11 -10 -11 -11 -11 -11 -12 -9 -8 -8 -8 -7 -7 -7
-14 -14 -13 -12 -12 -11 -11 -11 -12 -11 -12 -10 -10 -10 -10 -10 -10 -11 -12 -11 -8 -7 -6 -6 -7 -7 -7
-12 -12 -12 -12 -11 -11 -11 -11 -10 -10 -10 -10 -10 -10 -10 -9 -10 -12 -11 -9 -7 -6 -6 -5 -5 -6 -6
-12 -12 -11 -11 -11 -11 -11 -11 -11 -10 -10 -10 -10 -10 -10 -10 -10 -10 -8 -8 -5 -5 -4 -4 -4 -4 -4
-12 -11 -11 -11 -11 -11 -11 -11 -11 -11 -10 -9 -9 -10 -9 -9 -9 -8 -7 -8 -5 -4 -4 -4 -3 -2 -2
-12 -11 -11 -11 -11 -11 -11 -10 -10 -10 -10 -10 -9 -9 -8 -8 -8 -7 -7 -5 -4 -4 -4 -4 -3 -2 -1
-11 -11 -11 -11 -11 -10 -10 -10 -10 -9 -9 -9 -9 -8 -7 -7 -7 -7 -5 -5 -4 -4 -4 -5 -4 -2 0
-11 -11 -10 -10 -10 -10 -10 -10 -10 -9 -9 -9 -9 -8 -8 -8 -6 -6 -5 -4 -4 -4 -4 -5 -5 -5 -0

GFSFLT2_850_dewp_015.txt.gz
Dewpoint
-11 -11 -13 -13 -10 -9 -8 -8 -8 -8 -8 -10 -10 -10 -10 -8 -7 -7 -7 -7 -6 -6 -6 -6 -5 -4 -3
-10 -11 -12 -9 -10 -9 -7 -9 -10 -11 -11 -11 -10 -10 -9 -7 -8 -8 -8 -7 -7 -6 -5 -5 -5 -5 -4
-9 -10 -9 -10 -9 -8 -10 -12 -13 -12 -11 -11 -10 -9 -9 -10 -9 -8 -7 -7 -7 -7 -7 -7 -6 -6 -6
-8 -8 -9 -9 -9 -11 -13 -12 -11 -11 -10 -10 -10 -11 -10 -10 -9 -9 -9 -9 -9 -8 -8 -7 -7 -7 -7
-8 -8 -10 -12 -12 -12 -11 -10 -10 -11 -11 -12 -11 -11 -11 -11 -11 -10 -9 -9 -8 -8 -7 -7 -7 -6 -6
-10 -11 -12 -11 -11 -10 -10 -10 -11 -11 -11 -12 -11 -11 -13 -13 -12 -10 -9 -9 -8 -8 -8 -8 -7 -6 -6
-12 -11 -10 -10 -10 -11 -10 -11 -10 -11 -11 -11 -13 -13 -13 -13 -12 -10 -9 -9 -8 -8 -8 -8 -7 -7 -7
-11 -10 -10 -10 -10 -10 -11 -11 -11 -12 -11 -11 -13 -13 -13 -13 -13 -13 -11 -9 -8 -8 -8 -7 -7 -7 -7
-10 -11 -11 -11 -11 -11 -11 -11 -11 -11 -12 -11 -12 -11 -11 -12 -13 -12 -10 -9 -9 -8 -8 -7 -7 -7 -7
-13 -14 -14 -13 -11 -11 -11 -12 -12 -12 -12 -12 -11 -11 -11 -11 -12 -12 -11 -11 -10 -9 -8 -8 -7 -7 -7
-14 -13 -13 -12 -11 -11 -11 -11 -12 -12 -12 -11 -11 -11 -11 -11 -11 -10 -10 -10 -8 -8 -6 -6 -6 -7 -7
-13 -12 -12 -11 -11 -11 -11 -11 -11 -11 -10 -10 -11 -10 -10 -10 -10 -10 -9 -8 -7 -6 -6 -6 -6 -6 -6
-12 -12 -11 -11 -11 -11 -11 -10 -10 -10 -9 -9 -9 -9 -10 -10 -9 -9 -8 -8 -6 -6 -5 -5 -5 -5 -5
-12 -11 -11 -11 -11 -10 -10 -10 -10 -11 -10 -9 -9 -9 -8 -8 -8 -8 -6 -8 -6 -5 -5 -5 -4 -4 -4
-11 -11 -10 -11 -10 -10 -10 -10 -10 -10 -10 -9 -8 -7 -7 -7 -7 -7 -6 -5 -5 -4 -5 -5 -5 -4 -3
-11 -10 -10 -10 -10 -10 -10 -10 -10 -9 -9 -8 -8 -8 -7 -6 -6 -6 -6 -5 -4 -5 -5 -5 -5 -2 -1
-10 -10 -10 -10 -10 -9 -9 -9 -10 -9 -9 -8 -8 -8 -8 -7 -5 -5 -5 -5 -4 -4 -5 -5 -5 -2 1

GFSFLT2_850_dewp_018.txt.gz
Dewpoint
-11 -12 -13 -11 -11 -10 -9 -8 -9 -8 -8 -8 -8 -10 -10 -9 -8 -7 -7 -6 -6 -6 -6 -5 -5 -4 -3
-11 -11 -11 -11 -11 -9 -8 -9 -12 -13 -11 -11 -10 -10 -10 -9 -8 -8 -7 -7 -7 -7 -6 -6 -6 -5 -5
-10 -11 -11 -8 -9 -11 -12 -13 -12 -12 -11 -11 -10 -10 -9 -9 -9 -8 -8 -8 -7 -8 -7 -6 -6 -6 -5
-9 -8 -8 -11 -12 -13 -12 -12 -11 -10 -10 -10 -10 -10 -10 -10 -10 -10 -9 -9 -9 -8 -8 -8 -7 -7 -7
-9 -10 -10 -12 -12 -12 -10 -10 -10 -10 -11 -12 -12 -11 -12 -12 -11 -11 -10 -9 -9 -9 -8 -7 -7 -7 -7
-10 -10 -11 -12 -11 -10 -10 -10 -11 -11 -11 -12 -11 -11 -13 -13 -12 -10 -9 -9 -9 -8 -8 -7 -7 -7 -7
-12 -12 -11 -10 -10 -11 -11 -11 -11 -11 -11 -12 -12 -12 -13 -13 -12 -10 -9 -9 -8 -8 -8 -8 -7 -7 -7
-11 -11 -10 -10 -10 -10 -11 -11 -11 -11 -11 -11 -12 -12 -12 -13 -13 -12 -10 -9 -9 -8 -8 -8 -7 -7 -7
-10 -10 -12 -12 -11 -11 -11 -11 -11 -12 -12 -11 -12 -11 -12 -13 -13 -12 -9 -9 -8 -8 -8 -8 -7 -7 -7
-13 -13 -13 -13 -12 -11 -11 -12 -12 -12 -13 -11 -12 -11 -11 -11 -11 -11 -11 -9 -8 -9 -8 -8 -7 -7 -7
-13 -13 -12 -12 -11 -11 -11 -11 -12 -12 -11 -11 -11 -11 -11 -11 -11 -10 -8 -8 -7 -7 -6 -6 -6 -7 -8
-12 -12 -12 -11 -11 -11 -10 -10 -10 -10 -9 -9 -10 -10 -10 -10 -10 -9 -7 -7 -6 -5 -6 -6 -5 -5 -6
-12 -11 -11 -10 -10 -10 -10 -10 -10 -10 -9 -9 -9 -9 -9 -9 -9 -7 -7 -7 -6 -6 -5 -5 -5 -5 -5
-11 -11 -10 -10 -10 -10 -10 -10 -10 -10 -10 -9 -8 -8 -8 -6 -6 -6 -6 -7 -6 -6 -5 -5 -5 -5 -5
-10 -10 -10 -10 -10 -10 -10 -9 -10 -9 -10 -9 -8 -7 -6 -6 -6 -6 -6 -6 -6 -5 -5 -5 -5 -5 -5
-10 -9 -10 -10 -10 -9 -9 -9 -9 -9 -9 -9 -8 -8 -9 -8 -6 -6 -6 -6 -6 -6 -5 -5 -5 -2 -2
-9 -9 -10 -9 -9 -9 -9 -9 -9 -9 -9 -9 -8 -8 -8 -8 -8 -5 -6 -6 -6 -6 -5 -5 -4 -0 -1

GFSFLT2_850_dewp_024.txt.gz
Dewpoint
-11 -10 -10 -10 -10 -9 -9 -9 -10 -10 -10 -9 -9 -8 -8 -7 -7 -7 -6 -6 -6 -6 -5 -5 -5 -5 -4
-9 -9 -10 -9 -9 -9 -10 -11 -12 -12 -10 -9 -8 -8 -8 -7 -7 -7 -7 -7 -7 -6 -6 -6 -5 -5 -5
-9 -10 -9 -8 -8 -10 -11 -12 -11 -11 -10 -9 -9 -8 -8 -7 -7 -7 -7 -7 -7 -7 -7 -7 -7 -6 -6
-9 -9 -7 -9 -10 -12 -12 -11 -10 -10 -10 -9 -9 -9 -8 -8 -8 -8 -8 -8 -8 -8 -7 -7 -7 -7 -7
-8 -7 -9 -11 -12 -11 -10 -10 -10 -9 -10 -10 -10 -10 -10 -9 -9 -9 -8 -8 -8 -8 -8 -7 -7 -7 -7
-8 -9 -11 -12 -11 -10 -10 -9 -9 -10 -10 -10 -9 -10 -10 -10 -9 -9 -8 -8 -8 -8 -7 -7 -7 -7 -7
-9 -11 -11 -11 -11 -10 -9 -10 -9 -10 -9 -10 -10 -10 -10 -11 -10 -8 -8 -8 -8 -8 -8 -7 -7 -7 -7
-11 -10 -10 -10 -9 -10 -10 -10 -10 -10 -9 -10 -11 -10 -10 -11 -12 -11 -9 -8 -7 -7 -7 -7 -7 -7 -7
-10 -9 -9 -9 -10 -10 -10 -10 -10 -10 -11 -10 -9 -10 -10 -12 -11 -10 -9 -8 -7 -7 -7 -7 -7 -7 -7
-10 -11 -11 -10 -10 -10 -10 -11 -10 -11 -10 -10 -10 -10 -10 -10 -10 -10 -9 -8 -7 -7 -6 -6 -6 -6 -7
-11 -11 -10 -10 -10 -10 -10 -10 -11 -11 -10 -10 -10 -10 -10 -10 -10 -9 -8 -8 -7 -7 -7 -6 -6 -6 -6
-11 -11 -10 -10 -10 -10 -10 -10 -10 -10 -10 -9 -10 -10 -10 -10 -9 -9 -9 -8 -7 -7 -6 -6 -7 -6 -6
-11 -11 -10 -10 -10 -10 -10 -10 -10 -10 -10 -10 -9 -9 -9 -10 -9 -8 -8 -7 -7 -6 -6 -6 -6 -6 -6
-11 -10 -10 -10 -10 -10 -10 -10 -10 -10 -10 -10 -9 -9 -9 -9 -8 -8 -8 -7 -6 -6 -6 -6 -6 -5 -5
-10 -10 -10 -10 -10 -10 -10 -9 -9 -9 -9 -10 -9 -8 -8 -8 -8 -9 -7 -6 -6 -6 -6 -6 -6 -4 -3
-9 -10 -10 -10 -10 -10 -9 -9 -9 -9 -9 -9 -9 -8 -8 -8 -8 -7 -7 -6 -6 -6 -6 -6 -5 -3 -3
-9 -10 -10 -10 -10 -9 -9 -9 -9 -9 -9 -9 -8 -8 -8 -8 -10 -9 -7 -6 -6 -6 -6 -6 -5 -4 -4

GFSFLT2_850_dewp_027.txt.gz
Dewpoint
-10 -9 -9 -9 -9 -9 -9 -10 -10 -10 -10 -9 -8 -8 -7 -7 -6 -6 -6 -6 -5 -5 -5 -5 -4 -4 -4
-9 -9 -9 -9 -9 -8 -9 -8 -11 -11 -10 -9 -8 -8 -7 -7 -7 -6 -6 -6 -6 -6 -6 -5 -5 -5 -5
-9 -9 -9 -9 -8 -8 -10 -10 -11 -11 -10 -9 -9 -8 -7 -7 -7 -7 -7 -7 -6 -6 -6 -6 -6 -6 -5
-9 -10 -8 -8 -8 -10 -11 -11 -10 -10 -10 -10 -9 -9 -8 -8 -8 -7 -7 -7 -7 -6 -7 -6 -7 -6 -6
-8 -8 -7 -9 -10 -11 -10 -9 -11 -10 -8 -13 -9 -11 -11 -9 -9 -8 -8 -7 -7 -7 -6 -6 -6 -6 -6
-8 -8 -9 -9 -10 -10 -11 -9 -8 -10 -9 -11 -11 -11 -10 -11 -9 -8 -7 -7 -7 -6 -6 -6 -6 -6 -6
-9 -9 -10 -10 -11 -10 -9 -9 -9 -11 -10 -10 -12 -11 -11 -11 -10 -8 -7 -8 -8 -6 -6 -6 -6 -6 -6
-10 -10 -11 -10 -9 -8 -9 -10 -11 -11 -9 -9 -11 -11 -10 -10 -12 -12 -11 -8 -7 -6 -6 -6 -6 -6 -6
-10 -9 -8 -8 -9 -10 -11 -10 -10 -11 -10 -10 -10 -9 -11 -11 -12 -11 -10 -9 -10 -8 -7 -6 -6 -6 -6
-10 -11 -10 -11 -9 -10 -10 -10 -10 -10 -10 -10 -10 -10 -10 -11 -10 -11 -11 -10 -9 -9 -8 -6 -6 -6 -6
-11 -11 -11 -10 -10 -10 -10 -10 -11 -11 -11 -10 -11 -11 -11 -10 -10 -11 -10 -10 -9 -9 -8 -7 -6 -6 -6
-11 -11 -10 -10 -10 -10 -10 -10 -10 -10 -10 -9 -11 -10 -10 -10 -10 -10 -10 -10 -9 -8 -7 -7 -6 -6 -6
-11 -10 -10 -10 -10 -10 -10 -10 -10 -10 -10 -10 -9 -10 -10 -10 -10 -10 -9 -9 -9 -7 -6 -6 -6 -6 -6
-11 -10 -10 -10 -10 -10 -10 -10 -10 -10 -10 -10 -9 -9 -9 -9 -8 -8 -8 -8 -7 -6 -6 -7 -7 -6 -5
-10 -10 -10 -10 -10 -10 -10 -10 -11 -10 -10 -10 -9 -9 -9 -8 -8 -8 -7 -7 -8 -6 -6 -7 -7 -7 -5
-9 -10 -10 -10 -10 -9 -9 -9 -10 -9 -9 -9 -9 -9 -9 -8 -8 -7 -8 -8 -7 -7 -6 -6 -6 -7 -4
-9 -9 -9 -9 -9 -9 -9 -9 -9 -9 -9 -9 -9 -9 -8 -8 -9 -8 -8 -7 -7 -6 -6 -6 -6 -7 -4

GFSFLT2_850_dewp_030.txt.gz
Dewpoint
-11 -9 -9 -9 -10 -9 -11 -11 -9 -10 -8 -8 -8 -8 -7 -7 -6 -6 -5 -5 -5 -5 -4 -4 -4 -4 -4
-8 -9 -9 -9 -11 -11 -10 -9 -11 -11 -9 -9 -8 -8 -7 -7 -6 -6 -6 -6 -6 -5 -5 -5 -4 -4 -4
-9 -9 -11 -11 -10 -9 -10 -11 -11 -11 -10 -9 -9 -8 -7 -7 -7 -7 -7 -7 -6 -6 -6 -5 -5 -5 -5
-9 -9 -8 -10 -8 -9 -10 -10 -11 -12 -12 -11 -10 -9 -11 -8 -9 -9 -7 -7 -7 -6 -6 -6 -5 -5 -5
-8 -8 -8 -8 -10 -9 -9 -11 -12 -11 -10 -9 -12 -13 -13 -12 -12 -12 -8 -7 -6 -6 -6 -6 -5 -5 -5
-8 -8 -10 -9 -9 -9 -10 -11 -9 -9 -9 -11 -12 -13 -12 -12 -11 -9 -8 -7 -7 -6 -6 -6 -5 -5 -5
-9 -10 -9 -9 -9 -10 -9 -8 -8 -10 -10 -10 -13 -12 -11 -11 -12 -11 -8 -8 -7 -7 -6 -6 -6 -5 -5
-9 -9 -9 -9 -9 -8 -9 -9 -10 -12 -12 -10 -11 -10 -11 -11 -12 -12 -12 -10 -7 -7 -6 -6 -6 -5 -5
-10 -9 -9 -9 -9 -9 -10 -9 -10 -10 -11 -10 -10 -10 -11 -12 -12 -12 -11 -9 -10 -10 -8 -7 -6 -6 -5
-11 -12 -12 -12 -11 -10 -10 -10 -10 -10 -11 -10 -11 -11 -11 -11 -11 -11 -11 -11 -11 -10 -10 -9 -8 -7 -6
-11 -12 -11 -11 -10 -10 -10 -11 -11 -11 -11 -11 -11 -11 -11 -11 -11 -11 -11 -11 -10 -10 -10 -10 -8 -7 -6
-11 -11 -11 -10 -10 -10 -10 -10 -10 -10 -10 -10 -11 -10 -10 -11 -10 -11 -11 -10 -10 -9 -9 -9 -8 -8 -7
-11 -11 -10 -10 -10 -10 -10 -10 -10 -10 -10 -10 -9 -9 -10 -10 -10 -10 -9 -10 -10 -9 -8 -8 -7 -7 -6
-10 -10 -10 -10 -10 -10 -10 -9 -10 -10 -10 -10 -9 -9 -10 -10 -9 -9 -10 -9 -8 -8 -8 -8 -8 -8 -7
-10 -10 -10 -10 -9 -9 -9 -9 -10 -9 -10 -10 -10 -9 -9 -9 -9 -10 -9 -8 -8 -8 -7 -7 -8 -8 -7
-9 -9 -10 -9 -9 -9 -9 -9 -9 -9 -9 -9 -9 -9 -9 -9 -9 -8 -8 -8 -8 -7 -7 -7 -7 -8 -7
-9 -9 -9 -10 -9 -9 -9 -9 -9 -9 -9 -9 -8 -8 -9 -8 -10 -8 -8 -8 -7 -7 -7 -7 -7 -7 -7

GFSFLT2_850_dewp_036.txt.gz
Dewpoint
-16 -16 -15 -17 -18 -17 -17 -16 -16 -15 -15 -7 -7 -7 -7 -7 -7 -6 -6 -5 -5 -5 -4 -4 -4 -3 -3
-12 -12 -13 -14 -14 -15 -15 -16 -16 -16 -14 -8 -7 -7 -7 -7 -6 -6 -6 -6 -6 -6 -6 -5 -5 -5 -4
-9 -10 -10 -12 -12 -13 -14 -16 -15 -14 -13 -13 -12 -11 -8 -7 -7 -6 -7 -7 -7 -7 -7 -6 -5 -5 -5
-9 -9 -9 -11 -12 -11 -12 -14 -13 -13 -12 -12 -12 -11 -12 -11 -11 -13 -13 -13 -10 -7 -7 -6 -6 -6 -5
-8 -8 -9 -10 -11 -12 -12 -12 -11 -11 -12 -11 -12 -12 -12 -12 -12 -12 -12 -12 -8 -7 -7 -6 -6 -6 -6
-8 -8 -9 -10 -11 -11 -10 -9 -9 -11 -11 -10 -11 -11 -11 -12 -12 -12 -12 -8 -8 -7 -7 -7 -7 -6 -6
-8 -9 -10 -11 -10 -9 -9 -9 -9 -11 -11 -10 -11 -11 -12 -12 -12 -12 -12 -10 -8 -8 -7 -7 -7 -6 -6
-10 -10 -10 -10 -9 -9 -9 -10 -11 -11 -11 -10 -11 -11 -11 -12 -12 -13 -13 -12 -12 -8 -7 -7 -7 -7 -7
-11 -9 -9 -9 -9 -10 -11 -10 -10 -11 -11 -10 -11 -10 -11 -12 -12 -12 -12 -11 -11 -11 -9 -8 -8 -7 -7
-10 -11 -11 -12 -11 -11 -10 -10 -10 -11 -11 -10 -10 -11 -10 -11 -11 -11 -11 -11 -11 -11 -11 -10 -9 -8 -8
-12 -12 -12 -11 -11 -10 -10 -10 -10 -10 -10 -10 -11 -11 -11 -10 -10 -11 -11 -11 -11 -11 -11 -11 -10 -9 -8
-11 -11 -11 -11 -10 -10 -10 -10 -10 -10 -10 -10 -10 -10 -10 -11 -11 -10 -10 -10 -10 -11 -11 -11 -10 -10 -8
-11 -10 -10 -10 -10 -10 -10 -10 -10 -10 -10 -10 -9 -9 -10 -10 -10 -9 -10 -10 -10 -10 -11 -10 -9 -9 -9
-10 -10 -10 -10 -10 -10 -10 -10 -10 -11 -11 -10 -10 -10 -9 -9 -9 -10 -10 -10 -10 -10 -10 -9 -9 -8 -8
-9 -10 -9 -9 -10 -10 -10 -10 -10 -10 -10 -11 -10 -10 -9 -9 -9 -9 -10 -10 -10 -9 -8 -8 -8 -8 -8
-9 -9 -9 -10 -10 -10 -10 -10 -10 -10 -10 -10 -10 -9 -10 -10 -9 -9 -10 -9 -9 -8 -8 -8 -8 -8 -8
-9 -9 -9 -9 -9 -10 -10 -9 -9 -9 -9 -9 -9 -9 -10 -10 -10 -8 -8 -8 -8 -8 -8 -8 -7 -8 -8

GFSFLT2_850_dewp_039.txt.gz
Dewpoint
-16 -17 -17 -17 -19 -19 -19 -18 -19 -20 -21 -20 -10 -7 -6 -6 -6 -6 -6 -5 -5 -4 -4 -4 -4 -3 -3
-15 -15 -14 -14 -15 -14 -16 -17 -18 -20 -19 -16 -8 -7 -7 -7 -6 -6 -6 -6 -5 -5 -5 -5 -5 -4 -4
-13 -11 -11 -11 -11 -13 -14 -16 -18 -19 -16 -14 -13 -12 -8 -7 -7 -7 -6 -7 -6 -6 -6 -6 -6 -6 -5
-10 -10 -9 -10 -10 -11 -12 -13 -15 -13 -14 -13 -12 -12 -12 -12 -11 -12 -11 -11 -8 -7 -7 -7 -6 -6 -5
-9 -8 -9 -9 -10 -10 -11 -13 -11 -11 -13 -12 -11 -12 -12 -12 -12 -12 -12 -13 -11 -7 -7 -6 -6 -6 -6
-8 -8 -8 -9 -9 -11 -11 -10 -9 -10 -11 -12 -11 -12 -12 -12 -12 -12 -13 -12 -8 -8 -7 -7 -7 -7 -6
-8 -9 -9 -10 -10 -10 -9 -9 -9 -10 -11 -11 -11 -11 -12 -12 -12 -13 -13 -13 -9 -8 -7 -7 -7 -7 -6
-10 -10 -10 -9 -9 -9 -9 -9 -10 -11 -11 -10 -11 -11 -11 -12 -13 -13 -13 -12 -12 -9 -8 -7 -7 -7 -7
-12 -11 -11 -9 -9 -11 -11 -11 -11 -10 -11 -10 -11 -10 -11 -12 -12 -12 -12 -11 -11 -11 -10 -8 -8 -7 -7
-13 -14 -13 -12 -12 -11 -10 -10 -10 -10 -11 -10 -10 -11 -10 -11 -11 -11 -11 -11 -11 -11 -11 -11 -9 -8 -8
-14 -12 -12 -11 -11 -10 -10 -10 -10 -10 -11 -11 -11 -11 -11 -11 -10 -11 -11 -11 -11 -11 -11 -11 -10 -9 -9
-12 -11 -11 -10 -10 -10 -10 -10 -10 -10 -10 -10 -10 -10 -10 -11 -11 -10 -10 -10 -10 -11 -10 -11 -11 -10 -9
-11 -11 -10 -10 -10 -10 -10 -11 -11 -11 -11 -10 -9 -9 -10 -10 -10 -10 -10 -10 -10 -10 -11 -10 -10 -9 -9
-10 -10 -10 -10 -10 -10 -10 -10 -10 -11 -11 -10 -10 -9 -9 -9 -9 -10 -10 -9 -10 -11 -10 -9 -9 -8 -8
-10 -9 -10 -10 -10 -10 -10 -10 -10 -10 -10 -10 -10 -9 -9 -9 -10 -9 -10 -10 -11 -10 -9 -8 -8 -9 -8
-9 -9 -9 -9 -9 -9 -9 -9 -9 -9 -10 -10 -9 -9 -10 -10 -10 -10 -10 -10 -10 -9 -8 -8 -8 -8 -8
-9 -9 -9 -9 -8 -9 -9 -9 -9 -9 -10 -10 -9 -10 -10 -10 -10 -9 -9 -9 -8 -8 -9 -8 -8 -8 -8

GFSFLT2_850_dewp_042.txt.gz
Dewpoint
-10 -16 -17 -18 -17 -18 -20 -19 -19 -20 -22 -23 -22 -9 -6 -6 -6 -5 -5 -5 -5 -4 -4 -4 -3 -3 -3
-16 -17 -16 -16 -17 -19 -17 -16 -15 -19 -21 -23 -14 -9 -8 -7 -7 -6 -6 -6 -5 -5 -5 -5 -4 -4 -4
-14 -14 -13 -16 -14 -13 -13 -13 -16 -18 -21 -17 -13 -13 -13 -8 -7 -6 -6 -6 -6 -6 -6 -6 -5 -5 -5
-12 -11 -12 -12 -11 -10 -11 -12 -14 -16 -16 -13 -12 -13 -13 -13 -12 -12 -12 -12 -9 -7 -6 -6 -6 -6 -5
-10 -11 -10 -10 -10 -10 -10 -12 -11 -12 -13 -13 -13 -13 -13 -13 -12 -12 -12 -12 -11 -7 -7 -6 -6 -6 -6
-11 -9 -9 -9 -9 -10 -10 -10 -10 -11 -12 -13 -12 -12 -12 -12 -12 -12 -12 -12 -10 -8 -7 -7 -7 -7 -6
-10 -9 -9 -9 -10 -10 -10 -10 -9 -11 -11 -12 -11 -12 -12 -12 -12 -12 -12 -13 -12 -9 -7 -7 -7 -7 -6
-10 -10 -10 -10 -9 -9 -9 -11 -11 -11 -11 -11 -11 -11 -11 -12 -12 -12 -12 -12 -12 -11 -8 -7 -7 -7 -7
-15 -14 -14 -14 -12 -12 -11 -10 -10 -10 -11 -10 -11 -11 -11 -12 -12 -12 -12 -11 -11 -11 -11 -10 -8 -8 -7
-18 -17 -14 -12 -11 -11 -10 -10 -10 -10 -11 -10 -11 -11 -11 -11 -11 -11 -12 -12 -12 -11 -11 -11 -11 -8 -8
-16 -12 -12 -11 -11 -11 -10 -10 -10 -10 -11 -11 -11 -11 -12 -11 -11 -11 -11 -11 -11 -11 -11 -11 -10 -10 -9
-12 -12 -11 -11 -10 -10 -10 -10 -10 -10 -11 -10 -10 -10 -10 -11 -11 -11 -11 -10 -11 -10 -10 -10 -11 -10 -10
-11 -11 -10 -10 -10 -10 -10 -10 -10 -10 -10 -10 -9 -9 -10 -10 -10 -10 -10 -10 -9 -10 -10 -10 -10 -10 -10
-10 -10 -10 -10 -10 -9 -9 -9 -9 -10 -10 -10 -9 -9 -10 -9 -9 -10 -9 -9 -10 -10 -10 -10 -9 -9 -9
-10 -10 -9 -9 -9 -9 -9 -9 -9 -9 -10 -10 -10 -9 -10 -10 -10 -10 -10 -10 -10 -10 -9 -8 -9 -9 -9
-9 -9 -9 -9 -9 -9 -9 -9 -9 -9 -9 -10 -10 -9 -10 -11 -10 -10 -10 -10 -10 -9 -8 -9 -8 -9 -8
-9 -9 -8 -9 -9 -9 -9 -9 -9 -9 -10 -9 -9 -9 -10 -10 -11 -9 -9 -9 -8 -9 -9 -8 -8 -8 -8

GFSFLT2_850_dewp_045.txt.gz
Dewpoint
1 0 -1 -6 -13 -18 -18 -18 -19 -20 -21 -23 -23 -23 -9 -7 -6 -6 -6 -5 -5 -4 -4 -3 -3 -3 -3
-1 -1 -8 -17 -18 -18 -20 -19 -18 -18 -20 -24 -25 -20 -16 -12 -7 -6 -6 -6 -5 -5 -5 -5 -4 -4 -4
-4 -14 -16 -16 -16 -18 -17 -17 -18 -20 -25 -23 -19 -15 -14 -13 -7 -7 -7 -7 -6 -6 -6 -5 -5 -5 -5
-14 -12 -12 -14 -15 -15 -15 -14 -15 -19 -20 -15 -13 -13 -13 -13 -13 -13 -12 -12 -11 -7 -7 -6 -6 -6 -5
-11 -12 -13 -15 -12 -10 -9 -11 -11 -15 -13 -14 -14 -13 -13 -13 -13 -13 -13 -13 -12 -10 -7 -6 -6 -6 -6
-12 -14 -12 -12 -9 -9 -10 -9 -9 -11 -12 -11 -10 -12 -12 -12 -12 -12 -13 -13 -12 -8 -7 -7 -7 -6 -6
-12 -11 -9 -10 -12 -12 -10 -9 -10 -10 -11 -11 -12 -12 -12 -12 -13 -13 -13 -13 -12 -10 -8 -7 -7 -7 -6
-10 -11 -14 -13 -10 -10 -10 -10 -11 -11 -11 -10 -12 -11 -11 -12 -13 -13 -13 -12 -12 -11 -8 -7 -7 -7 -7
-17 -17 -15 -15 -13 -12 -11 -10 -10 -11 -11 -11 -11 -10 -11 -12 -12 -12 -12 -12 -12 -12 -11 -11 -8 -8 -7
-20 -18 -14 -12 -11 -11 -10 -10 -10 -10 -10 -10 -11 -11 -10 -11 -11 -11 -12 -12 -11 -11 -11 -11 -11 -9 -8
-16 -12 -12 -11 -11 -10 -10 -10 -10 -10 -10 -10 -10 -10 -11 -10 -11 -11 -11 -11 -11 -11 -10 -10 -10 -10 -9
-12 -12 -11 -11 -11 -10 -10 -10 -9 -9 -9 -9 -9 -9 -9 -10 -10 -10 -10 -10 -10 -10 -10 -10 -10 -10 -10
-11 -11 -10 -10 -10 -10 -10 -9 -9 -9 -9 -9 -9 -9 -9 -9 -9 -10 -10 -10 -10 -10 -10 -10 -10 -10 -10
-10 -10 -10 -10 -10 -9 -9 -9 -9 -10 -10 -10 -10 -9 -9 -9 -9 -10 -10 -10 -10 -10 -10 -9 -9 -9 -9
-10 -10 -10 -9 -9 -9 -9 -9 -9 -10 -10 -11 -10 -10 -9 -10 -10 -11 -10 -10 -10 -10 -9 -9 -9 -9 -9
-10 -10 -9 -9 -9 -9 -9 -8 -9 -10 -10 -10 -10 -10 -10 -10 -10 -10 -10 -10 -9 -8 -8 -9 -8 -8 -8
-9 -9 -9 -9 -9 -9 -9 -9 -9 -9 -10 -10 -9 -9 -10 -10 -10 -9 -9 -9 -8 -9 -8 -8 -7 -8 -8